Terminal Aerodrome Forecast
Issued by NWS

Home | Current Version | Previous Version | Text Only | Print | Product List | Glossary On
Versions: 1 2 3 4 5 6 7 8 9 10 11 12 13 14 15 16 17 18 19 20
000
FTUS43 KILX 302339
TAFCMI
TAF
KCMI 302339Z 0100/0124 33007KT P6SM SKC
     FM010900 03003KT 4SM BR BKN250
     FM011400 08006KT P6SM BKN040=

USA.gov is the U.S. government's official web portal to all federal, state and local government web resources and services.